TIMESTAMP,CO2_1_1_1,H2O_1_1_1,TAU_1_1_1,TAU_SSITC_TEST_1_1_1,H_1_1_1,H_SSITC_TEST_1_1_1,LE_1_1_1,LE_SSITC_TEST_1_1_1,FC_1_1_1,FC_SSITC_TEST_1_1_1,WD_0_0_1,WS_0_0_1,WS_MAX_0_0_1,U_SIGMA_0_0_1,V_SIGMA_0_0_1,W_SIGMA_0_0_1,USTAR_0_0_1,MO_LENGTH_0_0_1,ZL_0_0_1,FETCH_MAX_0_0_1,FETCH_70_0_0_1,FETCH_80_0_0_1,FETCH_90_0_0_1,PA_0_0_1,RH_0_0_1,TA_0_0_1,VPD_0_0_1,T_SONIC_0_0_1,T_SONIC_SIGMA_0_0_1
[yyyymmddHHMMSS],[mmolCO2 mol-1],[mmolH2O mol-1],[kg m-1 s-2],[#],[W m-2],[#],[W m-2],[#],[umolCO2 m-2 s-1],[#],[Decimal degrees],[m s-1],[m s-1],[m s-1],[m s-1],[m s-1],[m s-1],[m],[#],[m],[m],[m],[m],[kPa],[%],[deg C],[hPa],[deg C],[deg C]
20240622003000,407.61743837616899,18.447784951924024,0.14650875067813171,0,-5.7345276532207201,0,-3.4959720573388608,2,1.0994762008674821,0,81.786170552871553,1.4123505287484188,5.0756133955346012,0.79335847573566265,0.65892761363940699,0.41826039070225218,0.35942448363590801,681.29851346523526,2.7887922290277412E-002,110.91330197227893,202.78488998866737,242.68172133286015,303.80871744807752,94.883746604657460,94.806666666666672,16.291666666666686,0.95909108229928053,17.667569077736971,9.9362485276108331E-002
20240622010000,408.34057755552823,18.175395890125284,0.13935852706670518,0,-7.4236657222895497,0,3.1130243695193403,1,2.0890473149360589,0,75.956211074130024,1.4538645507073047,4.4584673566228901,0.74336018863932041,0.57006750910151160,0.40632044750747998,0.35044675640870143,487.76312106657031,3.8953334476074228E-002,111.23913242191907,203.38061196890152,243.39464839368367,304.70121752922597,94.875014141701868,94.340000000000003,16.134333333333359,1.0348389615381097,17.486301857357603,5.0498547236607932E-002
20240622013000,408.45655476093600,18.132007136083814,6.5087248889408783E-002,0,-6.2642483288002389,0,3.6336424531026781,1,1.6534537982717443,0,67.081512272088631,1.4838687618681834,3.3477356290155051,0.56169992198480811,0.47698986790061376,0.28158173689246108,0.23948645135597266,184.44306884450702,0.10301281646976808,110.00085785026209,201.11665112449367,240.68526548659531,301.30939163662299,94.853990169704858,94.629999999999995,16.045333333333360,0.97625531436087620,17.399364757113972,5.9085767070010738E-002
20240622020000,408.79158430167547,17.985261697980125,0.16930735115119930,0,-10.447799246847680,0,1.2667355912068450,2,5.6534532224767666,0,71.942037181335721,1.9000814687236347,4.6699287421251707,0.78957454424365803,0.74421348085505390,0.45340320165345549,0.38622894132145319,463.66606594321451,4.0977766965432712E-002,110.13949598161469,201.37012584497037,240.98860998865899,301.68914295703860,94.798965381944456,94.933333333333337,15.858999999999980,0.91020756618116139,17.188307707892591,0.10657466338130861
20240622023000,408.14810788686867,17.840229632292093,0.25412251034456712,0,-13.854067147708385,0,-1.0085972635658769,2,4.7462772416700725,0,71.910200117393344,2.1882457491235838,5.6615449284071513,0.87543354478722779,0.72432202461906459,0.54567556178085030,0.47306014439063332,642.41258829585149,2.9576008232344745E-002,111.69671081572230,204.21721120991745,244.39584401475216,305.95459564060934,94.786460834418406,95.193333333333328,15.687666666666644,0.85408422067763701,17.006327176411958,5.7816708272751038E-002
20240622030000,410.07824465725008,17.635040043753261,0.17435531563272386,0,-14.254229629520395,0,6.7478128816444576,1,3.4031533551502511,0,90.311858418122227,1.8633811873643107,5.0838125226560242,0.78962647532271246,0.69160796123951940,0.46325415309191215,0.39174538438843354,354.61865006411995,5.3578682329777458E-002,109.49708387876612,200.19559163413157,239.58299251850812,299.92947668104648,94.807165705729162,94.473333333333329,15.629000000000019,0.97833620431091728,16.938717941284210,7.6194609302076055E-002
20240622033000,412.33664966695812,17.438338099993452,5.6225161240385846E-002,0,-8.8581778421631761,0,-3.8083801085498346,1,1.2066984036181523,0,87.285919020178497,1.0690121108806159,3.3600810689142557,0.48339189093174129,0.51857999447825531,0.25322952791609205,0.22238108513275248,104.39112272224254,0.18200781354324569,112.85523244210637,206.33535823446917,246.93072502084198,309.12796586031101,94.818507114800354,94.323333333333338,15.480666666666650,0.99538006649609312,16.774673489040879,0.10015039306320975
20240622040000,414.19424043175604,17.528980244524650,6.4066606590587924E-002,0,-5.6954029524369698,0,0.41569840510858569,0,2.9738919817309424,0,84.813838650439251,1.3891553452046317,3.0064175836798057,0.50995796716575070,0.39112415051007254,0.27406130815819557,0.23733926054609014,197.38619075573686,9.6258000254497447E-002,111.60210512011562,204.04424182540939,244.18884383849326,305.69545598346770,94.822110468098955,95.450000000000003,15.377000000000010,0.79253456449486070,16.670368045383043,5.9601457748919846E-002
20240622043000,415.63496038420237,17.602730765101377,4.0901467678963688E-002,0,-2.1459295365735880,0,0.63715543054784585,1,2.1899249818194813,0,72.615137722244768,1.1688818081923531,3.7628491614456805,0.54455188426113854,0.44973735752629690,0.24807721152236911,0.18961193284115876,267.11148991537675,7.1131346712263732E-002,64.558797313167943,455.00000000000000,774.00000000000000,1825.0000000000000,94.814054911929773,96.516666666666666,15.268000000000029,0.60250682019735446,16.571731332697482,4.1579026775596238E-002
20240622050000,414.67431327703537,17.701445268982745,0.14291601546936664,0,-5.0386252828538236,0,-0.27146173835353637,2,5.3619389147995191,1,94.794664197096552,1.6645561607784320,4.4680254104126682,0.69982587022591447,0.57618790119232566,0.38652412790985968,0.35449194775086973,743.29391010743586,2.5561893810287960E-002,116.84192739555802,213.62430810051970,255.65373638673282,320.04814098022212,94.794087207465296,96.906666666666666,15.288999999999987,0.53577139302247812,16.592884268018963,4.7361957132677282E-002
20240622053000,414.12230876580230,17.680035844724809,0.16393577608266113,0,-0.70396848563896863,0,0.49051513138609204,2,3.7189257691707520,0,93.316752988354821,2.1345281915061527,4.9418720257782365,0.84659000763735370,0.68362216343768645,0.45345578215135485,0.37970396410802226,6535.7903472211647,2.9070699931613118E-003,108.63832212757927,198.62550126494912,237.70399535327240,297.57719520008629,94.752710930338537,97.166666666666657,15.221666666666692,0.48862044095958029,16.516999248080822,4.0180013718626242E-002
20240622060000,414.80909556783297,17.758360070661027,0.20230532934100356,0,-2.7106297898393481,0,0.52299027303254086,0,3.1507904048200599,0,105.46517678508391,1.9098090399193468,5.3513721872133768,0.86380358443308980,0.73839267504346540,0.44151478937304905,0.42184955975353305,2327.3115954402597,8.1639261529162597E-003,120.73266174040727,220.73781136897870,264.16678298499284,330.70546512638515,94.731335332899306,97.656666666666666,15.208666666666659,0.40378034051028411,16.505349476284493,4.0623367044193240E-002
20240622063000,420.08192566325113,17.743057320122322,0.16721304662539671,0,1.6879461759095264,0,0.96088833084014635,1,2.9226295350757669,0,81.410540498229366,1.7976649720104716,5.2007419798537784,0.86215065468656438,0.64770328296459423,0.43745756492169408,0.38354618133261353,-2807.8802374971433,-6.7666703680125638E-003,112.70943829806087,206.06880004049665,246.61172294256957,308.72861311247766,94.680732432187156,98.239999999999995,15.094333333333338,0.30104461130685650,16.368730393817202,5.3921820183689108E-002
20240622070000,419.51137643379263,17.768588459968115,0.21540333901967962,0,-4.0427907510549481,0,-1.0879340472093399,1,4.2832815620899503,0,98.464963470903683,2.2962567521846604,5.3974068496901584,0.90862026747639690,0.63940931551714586,0.49129339543988504,0.43536810664089060,1714.3921781703229,1.1082645057490674E-002,113.67565048637772,207.83534407831198,248.72582497419177,311.37521798759542,94.661026525607653,98.356666666666669,15.094999999999970,0.28110105810434560,16.505128417121057,6.6355651563097875E-002
20240622073000,418.63856907758208,17.755712316453003,0.15517268944087226,0,-4.1803935181475955,0,-0.17311026857137013,2,3.5021596756692737,0,97.527328653970287,2.1537666352349318,5.6961280427616101,0.87926294875978550,0.63787219132653405,0.45744512806462401,0.36969055474272972,1014.7954253169235,1.8722985466815882E-002,105.59768040803885,193.06623843869170,231.05097760577982,289.24840645603126,94.618010614366312,97.383333333333340,15.231333333333339,0.45153576750807817,16.529627028571213,5.2984400434328199E-002
20240622080000,420.65646364720129,17.793372814476839,0.19353233766895911,0,-8.2216347008360593,0,-0.88345259597655212,0,5.4558626089225921,1,92.410461996012401,1.8379588628982360,5.3706951993645644,0.81464964016805963,0.66265304514945333,0.46034732003275297,0.41295728813401084,718.90246200794331,2.6429176423922254E-002,114.79170661932544,209.87585063718754,251.16779017251886,314.43226864176899,94.566003067057295,97.743333333333339,15.198333333333323,0.38858860347654628,16.487429041544601,5.7092399348877658E-002
20240622083000,420.37266647922587,17.770429585237181,0.25939280976425599,0,-4.3504409260185772,0,-2.2701255851601649,1,4.0396628063408873,0,89.190147860660488,2.8037762575219793,6.7522326052107395,1.1222792461729991,0.85702614232374630,0.58892140485363487,0.47822586494937702,2108.9189860621118,9.0093550892999599E-003,106.00234608398982,193.80609635582786,231.93639857024314,290.35684843566548,94.499950226996532,97.750000000000000,15.166333333333341,0.38664441184814680,16.467564105563724,7.4921891251057443E-002
20240622090000,419.63443644131564,17.641392071540714,0.33877591766472132,0,-7.1495392940209230,0,-2.1680478045928595,1,3.9583003411972424,0,91.122535739548965,2.3702522772793020,7.0495214811875462,1.1510155419565913,0.88662030354810528,0.60084707461452302,0.54654162352684510,1915.4009221739188,9.9195942635527216E-003,116.07597305953017,212.22389928565482,253.97780470474154,317.95007338765714,94.495055246372871,96.933333333333337,15.182666666666648,0.52753568144625207,16.468426856524104,4.8747383989511950E-002
20240622093000,419.36016029562910,17.604018522187335,0.23047719652641030,0,-1.3646883779340320,0,0.13179971010061325,2,3.4909006834815330,0,71.719357841175309,2.5238583746366712,6.3316651113111124,0.93975761523188828,0.74006876607426220,0.51208823463553943,0.45083307751721019,5630.2265033764452,3.3746422081963674E-003,113.08153096077790,206.74910410081145,247.42587315068494,309.74783256245991,94.448635103411206,97.250000000000000,15.091333333333353,0.47029143150384700,16.364521644713591,3.9368268122936000E-002
20240622100000,420.34017882701170,17.576569440441943,0.24505812650058917,0,-1.0236671856753714,2,1.3217363935887012,0,2.5651489554151694,0,83.160674333202294,2.3143946883856521,6.0167136371728827,0.94546689855478172,0.82367818340947985,0.54230508220090490,0.46493471707595901,8230.0770688890661,2.3086053558140870E-003,110.70660726175848,202.40698613593918,242.22946693913525,303.24254861359259,94.411225045572920,97.293333333333337,15.053999999999974,0.46177021650712052,16.275959661695651,9.9375302085371209E-002
20240622103000,423.83314625182459,17.535115543902592,0.25594605402729759,0,-2.2966769226131940,0,-0.20234167598897984,2,1.8255376057642769,0,74.110961661687014,2.4418883105823079,6.6614235056413360,1.1147677244240422,0.80961059100979438,0.57679793752798258,0.47518739934624049,3915.0479967460565,4.8530694938584695E-003,107.23285611455987,196.05586114275542,234.62879242225128,293.72740604730268,94.368412078342018,97.533333333333331,14.971999999999980,0.41860957361343709,16.098710743374340,4.1644218564128130E-002
20240622110000,426.13458292665149,17.414715487993487,0.22348578209909423,1,-31.557226729933372,1,-5.2498030404644505,2,5.1176796602195864,1,93.845651069983887,2.9815061655577306,12.865739314801079,1.3317949914444451,0.99616730257890140,0.80659881119992261,0.44398710809537645,232.38930975324874,8.1759354680188273E-002,77.664960482607512,141.99631773090709,169.93332595831009,212.73635907777674,94.359746393012159,97.313333333333333,14.898666666666657,0.45379642057343061,16.516323024326027,0.85018676432094120
20240622113000,428.25869027136457,17.428808570846378,0.50869407600266259,0,-39.750077182226981,2,5.8906283007603522,1,6.6133189968591237,0,107.26648611735067,2.2514908157890003,19.596182607646153,1.9949576402571751,1.3113388864685058,0.88479067309591930,0.66974224027755980,633.28577744611528,3.0002252816449304E-002,100.20943730239252,183.21481154957266,219.26133570903968,274.48917381111369,94.362857415034114,97.896666666666661,14.819000000000017,0.35344794623069220,17.295080467393063,1.3573836921484650
20240622120000,426.80706525194438,17.296887321177547,0.38296157185476748,0,-15.173099150644910,0,0.11936476532175457,1,5.7923626370937402,0,105.86165121544089,2.8017301186885373,8.5008504045918105,1.3887892630347405,0.90462854267434833,0.65645435843757716,0.58102548430670886,1083.0677743528813,1.7542761819639818E-002,113.56576114843155,207.63443132113960,248.48538371769061,311.07421406625343,94.344867241539461,97.906666666666666,14.696666666666658,0.34900274067149439,15.508467046565102,0.16815066799034581
20240622123000,426.05115293973375,17.225504272286067,0.31655470929878304,0,2.1322595516925471,2,0.71835925446872639,1,3.9971184705875027,1,84.366235503967644,2.9571200328684060,7.5265956125641713,1.1580771712928091,1.0120331942689000,0.65814155890151393,0.52833994236349258,-5792.2055799637637,-3.2802703111443890E-003,105.03407205973483,192.03578262432873,229.81778517807462,287.70459587248132,94.285700858289928,97.933333333333337,14.618666666666684,0.34282631901913646,15.461905695597352,0.13834875896624052
20240622130000,422.90968958479311,16.749407242087518,0.52496688216262277,0,18.992982252678409,1,24.271891982520927,1,6.4831578693992826,1,82.533386699925373,3.1173059710926219,8.5924088912048369,1.4399022421205856,1.1859763353505224,0.82575427383305477,0.67993682824001345,-1385.5507536519506,-1.3712958511206430E-002,107.18872072128177,195.97516756758137,234.53222282219457,293.60651236739733,94.257144028645840,97.783333333333331,14.204333333333352,0.35798575926319248,15.060137312288646,0.15982762086194066
20240622133000,420.07698914977033,16.533696338351522,0.63380878764514215,0,23.380008570465048,0,0.26559583701046202,2,-2.8763578708043562,0,94.788345068692237,3.4375111080923086,8.4168902695034884,1.4626897615439340,1.1371574490842336,0.88498919204996795,0.74699553202214308,-1492.2791320366762,-1.2732202435926734E-002,109.33492959984763,199.89912189581383,239.22819396116950,299.48531098918693,94.241422916232636,97.189999999999998,14.095666666666659,0.45062264127524487,14.867485352904737,0.17061148262122297
20240622140000,418.80946137827613,16.758095274443455,0.47978440108864873,0,21.993214502493188,0,5.3237832206338345,1,-5.6606826263695504,0,91.737008209715086,2.9970305392770569,8.2384045274868551,1.4211228863916163,1.0218911461047246,0.79302524089024884,0.65023616833983056,-1046.0821771679421,-1.8163009001299205E-002,106.82728465464210,195.31434716364296,233.74138957456648,292.61648298505395,94.205595911458346,97.563333333333333,14.238666666666688,0.39439130157053343,15.086563577440074,0.19489650100873207
20240622143000,418.65821571561059,16.944972436174361,0.36685157807648949,0,23.230245084022460,0,7.4205359583231463,1,-6.2905602071985305,0,77.167202310253828,2.5443204063365679,7.5310125990074051,1.1700462772663780,0.99420239004352429,0.64808724019555008,0.56888147760626684,-663.06394207926007,-2.8654853316889932E-002,112.81466496220118,206.26118794286836,246.84196212515261,309.01684524789630,94.171266594184033,97.489999999999995,14.415999999999997,0.41095040119136000,15.373277479242404,0.14726464713499984
20240622150000,419.80777887298757,17.086555898132044,0.22935838057844271,0,22.059796762678101,0,1.3882905264690115,2,-8.9768724991386044,0,68.213419111277730,2.4721104095029998,6.8295836553685945,1.0577020355859019,0.82506151008111150,0.55869354030814433,0.44999300101551581,-345.51046007534154,-5.4991099244453806E-002,105.31266112417487,192.54513228555007,230.42734663283790,288.46769448065135,94.137833506727446,97.573333333333323,14.526000000000010,0.40014205022122268,15.586871306525381,0.17185423210268344
20240622153000,420.68931667451147,17.484570376209536,0.19045012082546767,0,10.700573916684499,0,7.6476147007619426,1,-10.285792579517143,0,60.682490875744747,2.1247243827948874,5.5500186527916968,0.85956633241526992,0.70625714418346641,0.49311991604223104,0.41042890886374112,-540.35474076333617,-3.5162086249413686E-002,108.11431966518465,197.66745764167803,236.55746182397249,296.14187127402073,94.105412378038196,97.356666666666669,14.911999999999978,0.44686082558712770,15.919803834703259,0.16927214247678790
20240622160000,422.53467598907685,17.716110986965290,0.22243129551294111,0,33.917554057755474,0,19.686661705943152,1,-9.2397407197625725,0,57.159025189088808,2.9642541092399601,7.2228705354257610,1.1315507322332194,0.87966343513213485,0.54963245512753889,0.44389289197626108,-215.61044967478790,-8.8121888473672333E-002,105.54059953819930,192.96187640361526,230.92608290422902,289.09205311023413,94.065212411269925,96.760000000000005,15.205333333333328,0.55816559418190770,16.102359013706632,0.19357430599440251
20240622163000,429.67017005412902,17.911278351773049,0.27664714688623088,0,23.573381637006509,0,-1.2888971314614392,2,-5.1184136334508059,1,63.327568497668622,3.7372805810868477,8.7704475382628555,1.1765347163804329,0.94655177318340422,0.64337738744544903,0.49539463630323427,-431.01404941925836,-4.4082089726774118E-002,101.58820943261151,185.73564674042990,222.27813160220447,278.26584428333240,93.999477519531240,96.596666666666664,15.391333333333364,0.59334986689445490,16.401949851142035,0.15266796545013231
20240622170000,447.48328564512940,18.089439741209748,0.25401588837108274,0,33.699436945979926,0,20.971749547202393,1,-2.7857297474902660,2,62.804100139164817,3.4858624402487219,8.4749187301416544,1.2854288984916697,0.99490938951634278,0.63840857352397729,0.47489794568621829,-265.55187872229686,-7.1549107810566129E-002,98.822574525799894,180.67918407676510,216.22683723238188,270.69034180502672,93.968265064019107,96.739999999999995,15.517333333333340,0.57297321606551577,16.521245625813833,0.14914202722665687
20240622173000,453.26311782699429,18.339216076700346,0.37136265397784407,0,44.319560846269347,0,0.16004074314696412,2,-13.749630669521304,0,69.020430767792988,3.2708309715729897,8.7390200227150281,1.4289155069981789,1.0245647665350572,0.70923975910103332,0.57456916837105609,-357.55508612730262,-5.3138665165667114E-002,105.80210179522513,193.43998593132571,231.49825789802117,289.80834830570717,93.943728592013883,96.426666666666662,15.778000000000020,0.63861838403897542,16.743460963779057,0.15005434309822888
20240622180000,458.64241320769173,18.576515756861465,0.21362662583860764,0,52.123829672405179,0,22.585165766833931,1,-12.746471843195858,0,60.814669265666950,2.9651789925607832,8.3504303759711593,1.2167245261431392,0.95042076575702950,0.61824698036496128,0.43610499032488126,-132.89918339612956,-0.14296551351536249,94.710502704603044,173.16100530957522,207.22949741770557,259.42674002023415,93.899408477864583,95.996666666666670,16.041666666666686,0.72762765262773654,17.150072744581394,0.19791375011003098
20240622183000,462.32506991322106,18.888340054167603,0.23887211979307710,0,34.641626494750398,0,13.712371455028741,2,-8.0165293665108965,1,44.389981453992050,2.3919713308739987,6.9812591173031100,1.1274116074792333,0.88611707548469443,0.55563065303795189,0.46144869143799921,-236.88834789776470,-8.0206562157290828E-002,107.92565108463491,197.32251130367558,236.14464915790759,295.62507880224047,93.887241442584170,95.760000000000005,16.339333333333343,0.78541387714028132,17.579250367445411,0.13842285442343152
20240622190000,464.03311489858828,18.840252038322667,0.35289765144171459,0,37.450490271794258,0,22.050492137585671,1,-11.605539308058519,0,37.164542001658191,2.3786689176861442,6.5125937813878503,1.2452565846771706,0.86201186039279543,0.62628667756812051,0.56090647102730840,-393.44020574916419,-4.8291963359010016E-002,114.64331125799566,209.60453658840368,250.84309655069950,314.02579075679796,93.856173991319466,95.829999999999998,16.282666666666671,0.76966298512950515,17.479199875725669,0.12461972528011193
20240622193000,469.41024231446937,18.748764848539622,0.27028577100193235,0,16.090659942846077,0,5.9913320235395693,0,-7.0796581567350483,0,25.633321110076565,2.3526056441284799,6.4738608918098448,1.1276386752659959,0.85159319445100334,0.55046350191119642,0.49081551742021062,-613.49796589421476,-3.0969947833985424E-002,114.23697768751292,208.86162922811573,249.95402618162217,312.91278015564109,93.848620386284722,95.920000000000002,16.190333333333342,0.74863137964299997,17.382354663425076,7.8726290259401283E-002
20240622200000,472.42868414369627,18.645595108038041,0.19809410358926902,0,9.2481910638140743,0,5.6283202751679369,1,-5.0217259034331247,0,14.695152629186140,2.1529559363985498,6.9513883319130185,1.0474386740317956,0.72949683116661013,0.47951360424931611,0.42013229855829537,-669.47246661665292,-2.8380554761305223E-002,112.64787653770968,205.95624550845824,246.47702391454820,308.55998591336299,93.850925629966113,95.739999999999995,16.133666666666670,0.77883859521874910,17.286505218012451,0.11682195476078486
20240622203000,471.40908949200809,18.838718201470353,0.27831933079107196,0,8.8853039589029699,1,2.9150237843877673,2,-6.6854146643374461,0,12.573842648484970,2.4267633429761064,7.0810205395357890,1.1414188688604079,0.69719257924162270,0.53696149485943145,0.49807730817607704,-1160.8112488329587,-1.6367863439557442E-002,117.90651139758900,215.57070718788532,257.98307897704609,322.96420149344726,93.819892077256952,96.806666666666672,16.116333333333330,0.58317882440705948,17.229301728990379,0.12057642854487544
20240622210000,472.21808671272697,18.518612686721095,0.24039288584056140,0,28.325154404452675,0,-63.266824466885069,1,-9.6644743688093051,1,3.5639720395250549,2.4660278590285318,6.9257854208147176,0.99389748183117554,0.76368518717600153,0.53799648254411025,0.46257485672230891,-291.64298863835518,-6.5148145987354730E-002,110.96268813053680,202.87518363687010,242.78977976843927,303.94399378674217,93.808397188368048,97.643333333333331,15.711666666666645,0.41939399298188845,16.802220446268734,0.16295860542304477
20240622213000,475.76811390988138,18.392500738145600,0.19610318005541971,0,6.3751496174383098,0,1.1800509905649361,2,-3.9197568558971714,0,4.6244575131342458,2.4813170536982225,6.3703144860369223,0.99502387918120550,0.76007086094724596,0.48391902927365177,0.41764207072078702,-953.57513272132564,-1.9925016234198078E-002,111.29614757812031,203.48485385848880,243.51939931176958,304.85739087518704,93.798202986111107,98.403333333333336,15.482333333333315,0.27999883745809256,16.662846942477756,0.12408396265669058
20240622220000,476.05279757115073,18.386286716861566,0.13951467998164180,0,9.7272774198488943,0,4.9982658679372225,1,-4.0025145716968433,0,353.02956470774370,1.9969621388699321,5.5084241350510554,0.78183203495656572,0.61241776392776159,0.41747962529203186,0.35225965165740014,-374.98866500531477,-5.0668198196686054E-002,109.30423595778703,199.84300412889203,239.16103532684173,299.40123634834208,93.794816333984372,98.503333333333330,15.460666666666668,0.26209787746687652,16.657698545667870,8.7396610396131877E-002
20240622223000,476.25512834740050,18.076173449864818,0.17527276500876299,0,16.181416822140900,0,-7.9357170344064558,1,-1.9863739561505818,0,341.32484421070882,2.2427702526564759,5.2982445739127506,0.82784970839164673,0.81713346303473022,0.48115384575515735,0.39465063551383889,-316.93833145648534,-5.9948570791944870E-002,106.85576944395778,195.36642644326963,233.80371517104601,292.69450723602199,93.782178342081409,98.503333333333330,15.193666666666672,0.25764247026214659,16.523157385156310,0.20740007219780315